Home   Weather   Barquisimeto   Past weeks

Flag for Venezuela Past Weather in Barquisimeto, Venezuela — Yesterday and Last 2 Weeks

Now
81 °F

Partly sunny.


Feels Like: 82 °F
Forecast: N/A
Wind: 10 mph from Southeast

Location: Barquisimeto Airport

Current Time: Apr 28, 2017 at 5:46:25 pm

Latest Report: Apr 28, 2017 at 5:00 pm


Visibility: N/A

Pressure: 29.95 "Hg (28.07 "Hg at 569m altitude)

Humidity: 58%

Dew Point: 64 °F

Location of BarquisimetoLocation

Past Weather in Barquisimeto — Graph

°F

Barquisimeto Temperature Yesterday

Maximum temperature yesterday: 90 °F (at 3:00 pm)
Minimum temperature yesterday: 73 °F (at 6:00 am)
Average temperature yesterday: 82 °F

High & Low Weather Summary for the Past Weeks

 TemperatureHumidityPressure
High91 °F (Apr 24, 2:00 pm)94% (Apr 13, 5:00 pm)30.07 "Hg (Apr 13, 5:00 pm)
Low68 °F (Apr 13, 10:00 pm)33% (Apr 27, 3:00 pm)29.86 "Hg (Apr 24, 5:00 pm)
Average79 °F66%29.97 "Hg
* Reported Apr 13 4:00 pm — Apr 28 4:00 pm, Barquisimeto, Weather by CustomWeather, © 2017

Note: Actual official high and low records may vary slightly from our data, if they occured in-between our weather recording intervals... More about our weather records

Advertising

Barquisimeto Weather History for the Previous 24 Hours

Scroll right to see more
 ConditionsComfort  
Time TempWeatherWind HumidityBarometerVisibility
4:00 pm
Fri, Apr 28
81 °FPartly sunny.10 mph62%29.95 "HgN/A
3:00 pm82 °FPartly sunny.12 mph55%29.98 "HgN/A
2:00 pm82 °FPartly sunny.12 mph55%30.01 "HgN/A
1:00 pm82 °FPartly sunny.13 mph55%30.01 "HgN/A
12:00 pm82 °FPartly sunny.13 mph55%30.04 "HgN/A
11:00 am81 °FScattered clouds.17 mph62%30.04 "HgN/A
10:00 am77 °FScattered clouds.7 mph74%30.04 "HgN/A
9:00 am75 °FFog.No wind78%30.04 "Hg6 mi
8:00 am72 °FOvercast.No wind88%30.01 "HgN/A
7:00 am70 °FOvercast.7 mph94%29.98 "HgN/A
6:00 am72 °FDrizzle. Overcast.12 mph88%29.98 "Hg5 mi
5:00 am73 °FPassing clouds.6 mph83%29.98 "HgN/A
11:00 pm
Thu, Apr 27
75 °FPassing clouds.7 mph74%29.98 "HgN/A
10:00 pm77 °FPassing clouds.8 mph69%29.98 "HgN/A
9:00 pm77 °FPassing clouds.9 mph69%29.95 "HgN/A
8:00 pm79 °FPassing clouds.14 mph61%29.92 "HgN/A
7:00 pm82 °FPassing clouds.8 mph48%29.89 "HgN/A
6:00 pm86 °FScattered clouds.9 mph40%29.89 "HgN/A
5:00 pm90 °FScattered clouds.12 mph33%29.89 "HgN/A
Weather by CustomWeather, © 2017

See weather overviewHow to use our weather pages